星链-5716 (STARLINK-5716 )

导读

STARLINK-5716是美国于2023年5月14日发射的星链卫星,隶属于SpaceX公司的星链项目,该项目旨在构建全球卫星互联网星座,为全球用户提供高速卫星互联网接入服务。该卫星入轨后承担相应的通信服务任务,是星链大规模星座组网进程中的组成单元,推进了全球低轨卫星通信网络的搭建。

基本信息
目录编号:
56504
目录名称:
STARLINK-5716
国际标识:
2023-065B
轨道中心:
EARTH
卫星名称:
星链-5716
卫星全名:
星链-5716 (STARLINK-5716 )
卫星状态:
在轨 (已飞行1209 天)
发射日期:
2023-05-14 UTC
国别 :
美国 (US)
星等 :
--
轨道信息
数据来源 国际轨道数据 AOE轨道数据
星历时间 2026-09-04T11:40:59+0800
5小时前
查看轨道信息
2026-09-02T16:00:00+0800
2天前
查看轨道信息
半长轴 6861.198km 6861.197km
偏心率 0.0001281 0.0001677
轨道倾角 43.004° 43.005°
近地点辐角 271.960° 267.261°
升交点赤经 284.603° 294.884°
平近点角 88.110° 151.684°
近地点 482.182km 481.909km
远地点 483.94km 484.211km
周期 94.267分钟 94.267分钟
每日圈数 15.275763 15.275765
详细信息
固有亮度:
5
最大亮度:
2.5
卫星平台:
Starlink v1.5
覆盖范围:
全球
运营商:
太空探索技术公司
运营商所在国:
美国
制造商(研发单位):
太空探索技术公司
制造商所在国:
美国
使用方式:
暂无
卫星简介
星链(Starlink)计划是由太空探索技术公司(SpaceX)提出的一个巨型低轨卫星互联网星座项目,计划在2019年至2024年间在太空搭建由约1.2万颗卫星组成的“星链”网络,其中1584颗将部署在地球上空550千米处的近地轨道,并从2020年开始工作。该卫星仍在工作。
2D轨道图
3D轨道图
轨道高度分析图
轨道倾角分析图
轨道综合分析图
查看轨道综合分析图